[[{"header":{"parameterUnit":"m.s-1","parameterCategory":1,"la1":30.2991,"la2":30.254,"lo1":-89.0895,"lo2":-89.0444,"dy":0.0017,"dx":0.0017,"nx":28,"ny":28,"refTime":"2023-07-30T09:00:00:Z","depth":0,"parameterNumber":2,"parameterNumberName":"U-component_of_WINDS"},"data":[0,0,0,0,0,0,0,0,0,0,0,0,0,0,0,0,0,0,0,0,0,0,0,0,0,0,0,0,0,0,0,0,0,0,0,0,0,0,0,0,0,0,0,0,0,0,0,0,0,0,0,0,0,0,0,0,0,0,2.2183,2.2183,0,2.2257,2.2257,2.2258,2.2218,2.2216,2.2214,2.2212,2.2294,2.2298,2.2302,0,0,0,0,0,0,0,0,0,0,0,0,0,2.2012,2.2015,2.2182,2.2183,2.2184,2.2256,2.2257,2.2259,2.2219,2.2216,2.2214,2.2211,2.2293,2.2298,2.2303,0,0,0,0,0,0,0,0,0,0,0,0,0,2.2086,2.2016,2.2182,2.2173,2.2173,2.2256,2.2258,2.2259,2.2219,2.2216,2.2213,2.221,2.2291,2.2297,2.2303,2.2402,0,0,2.2322,2.2325,0,0,0,0,0,0,0,0,2.2082,2.2092,2.2173,2.2174,2.2174,2.2225,2.2227,2.2307,2.222,2.2202,2.2212,2.2209,2.2274,2.2281,2.2302,2.2406,2.2409,2.2322,2.2326,2.2329,2.2331,0,0,0,0,0,0,0,2.2077,2.2089,2.2212,2.2175,2.2175,2.2167,2.2174,2.2242,2.2254,2.2203,2.22,2.2209,2.2274,2.2296,2.2304,2.2411,2.2322,2.2328,2.2331,2.2334,2.2599,2.2602,0,0,0,0,0,0,2.2071,2.2085,2.221,2.2214,2.2119,2.2172,2.218,2.2212,2.2253,2.2257,2.2212,2.2207,2.2287,2.2297,2.2307,2.2424,2.2329,2.2334,2.2338,2.2595,2.2599,2.2603,0,0,0,0,0,0,2.2068,2.2083,2.2207,2.2149,2.2164,2.2178,2.2214,2.2215,2.2237,2.226,2.2262,2.2232,2.2285,2.2298,2.2378,2.2426,2.2337,2.2343,2.2591,2.2597,2.2601,2.266,0,0,0,0,0,0,2.2063,2.2082,2.2118,2.215,2.2167,2.2275,2.2217,2.2218,2.2247,2.2242,2.228,2.2283,2.2284,2.2369,2.2384,2.2433,2.2348,2.2587,2.2594,2.26,2.2653,2.2666,2.2677,0,0,0,0,0,2.2057,2.2133,2.212,2.2135,2.2212,2.2278,2.2288,2.2285,2.2251,2.2289,2.2303,2.2282,2.2419,2.2378,2.2394,2.2445,2.2584,2.2592,2.2599,2.2648,2.2663,2.2676,0,0,0,0,0,0,2.2109,2.2137,2.2123,2.2211,2.2242,2.2271,2.2318,2.2302,2.2345,2.2338,2.2335,2.2344,2.2427,2.2445,2.2398,2.2543,2.2496,2.2508,2.2528,2.2543,2.2554,2.2547,2.2353,0,0,0,0,0,2.213,2.2179,2.2202,2.2278,2.2294,2.2303,2.2332,2.2327,2.236,2.2373,2.2394,2.2428,2.2479,2.2512,2.256,2.2657,2.2664,2.27,2.2712,2.2721,2.2731,2.2782,2.2798,2.2628,2.2628,2.2628,0,0,2.2175,2.2197,2.2228,2.2288,2.2312,2.2364,2.2315,2.2372,2.2411,2.2383,2.2458,2.2475,2.2513,2.2602,2.2642,2.2619,2.278,2.2731,2.2738,2.2742,2.2792,2.2808,2.2822,2.2633,2.2632,2.2631,0,0,2.2283,2.2304,2.2369,2.2393,2.2429,2.2435,2.245,2.2482,2.2491,2.2566,2.2546,2.2594,2.2681,2.2709,2.2734,2.2853,2.2835,2.287,2.293,2.298,2.2994,2.3005,2.3047,2.3062,2.2879,2.2879,2.2879,0,2.2334,2.241,2.2405,2.2463,2.249,2.2466,2.2532,2.2556,2.2607,2.2627,2.2601,2.2709,2.2733,2.2827,2.2856,2.2878,2.2896,2.2864,2.2992,2.3004,2.3015,2.3054,2.307,2.2883,2.2883,2.2882,2.2882,0,2.2471,2.2525,2.2573,2.2619,2.2653,2.2715,2.272,2.2755,2.2748,2.2757,2.2835,2.2863,2.2916,2.2938,2.2933,2.3032,2.3016,2.2991,2.2944,2.3035,2.3071,2.3087,2.2888,2.2887,2.2886,2.2885,0,0,2.2612,2.2655,2.2672,2.2693,2.2731,2.2772,2.2835,2.2884,2.2913,2.295,2.3001,2.3076,2.3052,2.3082,2.3079,2.3124,2.3215,2.3093,2.3094,2.3114,2.3325,2.3342,2.3359,2.3204,2.3207,2.3209,2.3321,0,2.2721,2.2826,2.2823,2.2922,2.2971,2.2948,2.3002,2.3032,2.3043,2.3088,2.3101,2.3153,2.3119,2.3136,2.3179,2.3195,2.3257,2.3187,2.3253,2.3255,2.3241,2.3379,2.3397,2.3501,2.3335,2.3338,2.334,0,2.2861,2.2899,2.3002,2.3032,2.3053,2.3101,2.3146,2.3189,2.3223,2.3228,2.326,2.3251,2.3315,2.3267,2.3356,2.3308,2.3335,2.3347,2.3351,2.3356,2.3301,2.3385,2.3534,2.3549,2.3363,2.3361,2.3359,0,2.2951,2.3029,2.31,2.3119,2.3156,2.319,2.3208,2.3239,2.3269,2.3309,2.3329,2.3377,2.3403,2.3442,2.3446,2.3411,2.3535,2.3488,2.3541,2.3541,2.3567,2.3565,2.372,2.3588,2.3588,2.3587,2.3587,0,2.3071,2.3135,2.3141,2.3184,2.3255,2.3253,2.3323,2.3338,2.3366,2.3413,2.3399,2.3444,2.3448,2.3495,2.35,2.3572,2.3585,2.3591,2.3591,2.3591,2.359,2.3607,2.3599,2.3591,2.359,2.359,2.3589,0,2.3183,2.3189,2.3265,2.3294,2.3303,2.3354,2.3379,2.3422,2.3431,2.3491,2.3505,2.3521,2.3575,2.3584,2.3649,2.3652,2.3738,2.3732,2.3725,2.3724,2.3776,2.377,2.3946,2.3969,2.3824,2.3825,2.3826,0,2.3258,2.3305,2.3339,2.3369,2.3387,2.3436,2.3466,2.3466,2.3498,2.3541,2.3578,2.3631,2.3673,2.3761,2.3779,2.3829,2.3823,2.3881,2.383,2.3828,2.3822,2.3818,2.3822,2.389,2.3892,2.3893,2.3894,0,2.339,2.3391,2.3433,2.3477,2.3513,2.3548,2.3582,2.3607,2.3613,2.365,2.3704,2.3736,2.3802,2.3854,2.3903,2.3923,2.391,2.391,2.3925,2.3924,2.3918,2.392,2.375,2.3906,2.3905,2.3904,2.3903,2.3903,2.3484,2.3525,2.3555,2.3603,2.3628,2.366,2.37,2.3715,2.3759,2.3811,2.381,2.3869,2.3903,2.3967,2.3991,2.4038,2.402,2.4041,2.4046,2.4051,2.4055,2.3912,2.4048,2.4047,2.4047,2.4047,2.4047,0,2.3614,2.3632,2.3676,2.3722,2.3761,2.3744,2.378,2.3813,2.3865,2.3897,2.3938,2.4001,2.4052,2.4074,2.4125,2.4159,2.4154,2.4172,2.4168,2.4173,2.407,2.4051,2.4175,2.4175,2.4175,2.4175,2.4175,2.4175,2.3685,2.3753,2.3758,2.3839,2.3858,2.3914,2.3936,2.3966,2.3991,2.4061,2.4102,2.4116,2.4145,2.4197,2.4243,2.4249,2.4268,2.4288,2.4291,2.4193,2.418,2.4168,2.415,2.4292,2.4293,2.4389,2.439,2.4391]},{"header":{"parameterUnit":"m.s-1","parameterCategory":1,"la1":30.2991,"la2":30.254,"lo1":-89.0895,"lo2":-89.0444,"dy":0.0017,"dx":0.0017,"nx":28,"ny":28,"refTime":"2023-07-30T09:00:00:Z","depth":0,"parameterNumber":3,"parameterNumberName":"V-component_of_WINDS"},"data":[0,0,0,0,0,0,0,0,0,0,0,0,0,0,0,0,0,0,0,0,0,0,0,0,0,0,0,0,0,0,0,0,0,0,0,0,0,0,0,0,0,0,0,0,0,0,0,0,0,0,0,0,0,0,0,0,0,0,4.3054,4.3056,0,4.3185,4.3186,4.3188,4.3166,4.3164,4.3162,4.3159,4.3282,4.3287,4.3293,0,0,0,0,0,0,0,0,0,0,0,0,0,4.2774,4.2779,4.3054,4.3056,4.3057,4.3184,4.3186,4.3188,4.3166,4.3164,4.3161,4.3158,4.328,4.3287,4.3293,0,0,0,0,0,0,0,0,0,0,0,0,0,4.2899,4.2781,4.3054,4.3062,4.3064,4.3184,4.3186,4.3188,4.3167,4.3164,4.316,4.3157,4.3278,4.3286,4.3294,4.341,0,0,4.3319,4.3322,0,0,0,0,0,0,0,0,4.2892,4.2909,4.3059,4.3062,4.3064,4.3156,4.3132,4.3262,4.3168,4.3128,4.3159,4.3155,4.3242,4.3253,4.3284,4.3416,4.3421,4.3319,4.3324,4.3328,4.333,0,0,0,0,0,0,0,4.2883,4.2903,4.3105,4.3061,4.3065,4.3055,4.3069,4.3157,4.3202,4.3131,4.313,4.3146,4.3243,4.3277,4.3287,4.3423,4.3319,4.3326,4.3331,4.3334,4.3654,4.3658,0,0,0,0,0,0,4.2874,4.2896,4.3101,4.3109,4.2968,4.3063,4.3079,4.313,4.3201,4.3209,4.3149,4.3144,4.3265,4.3278,4.3291,4.3431,4.3327,4.3335,4.334,4.365,4.3655,4.3659,0,0,0,0,0,0,4.2868,4.2892,4.3096,4.3003,4.3028,4.3072,4.3129,4.3134,4.3168,4.3214,4.3221,4.3176,4.3263,4.328,4.3381,4.3435,4.3339,4.3346,4.3646,4.3652,4.3657,4.3712,0,0,0,0,0,0,4.286,4.289,4.2938,4.3004,4.3033,4.3188,4.3132,4.3139,4.3183,4.3179,4.3242,4.3249,4.3261,4.3369,4.3389,4.3444,4.3352,4.3641,4.3649,4.3655,4.3706,4.3719,4.373,0,0,0,0,0,4.285,4.2946,4.294,4.2965,4.3094,4.3191,4.3207,4.3223,4.3188,4.3234,4.3263,4.3247,4.3426,4.338,4.3402,4.346,4.3638,4.3647,4.3655,4.37,4.3717,4.373,0,0,0,0,0,0,4.2882,4.2955,4.2949,4.3071,4.3125,4.3187,4.3246,4.3239,4.3302,4.3295,4.3307,4.3322,4.3424,4.3452,4.34,4.3575,4.3527,4.354,4.3554,4.357,4.3582,4.3572,4.3359,0,0,0,0,0,4.2904,4.298,4.3038,4.3139,4.3167,4.3202,4.3245,4.3252,4.3307,4.3329,4.3366,4.3417,4.3484,4.3528,4.3593,4.371,4.3721,4.376,4.3773,4.3782,4.3793,4.3855,4.3872,4.3686,4.3686,4.3686,0,0,4.2948,4.2998,4.3044,4.3147,4.319,4.3265,4.3221,4.3303,4.3357,4.334,4.3439,4.3467,4.3524,4.3634,4.3683,4.366,4.3847,4.3793,4.3801,4.3806,4.3865,4.3883,4.3898,4.3692,4.3691,4.369,0,0,4.3068,4.3114,4.3203,4.3248,4.3314,4.3337,4.3358,4.3421,4.344,4.354,4.3529,4.3591,4.3708,4.3749,4.3785,4.3919,4.3905,4.3939,4.4003,4.4063,4.4077,4.409,4.4137,4.4153,4.395,4.395,4.395,0,4.3114,4.323,4.3249,4.3332,4.3376,4.3367,4.3455,4.3496,4.3578,4.3607,4.3581,4.3727,4.3764,4.3882,4.3915,4.3945,4.3967,4.3932,4.4074,4.4088,4.41,4.4144,4.4162,4.3954,4.3953,4.3953,4.3952,0,4.3282,4.3363,4.3426,4.351,4.3561,4.3646,4.3673,4.3722,4.3724,4.3748,4.3848,4.3893,4.3967,4.3995,4.3997,4.4112,4.4096,4.4072,4.4023,4.4121,4.4163,4.418,4.3959,4.3958,4.3956,4.3956,0,0,4.3426,4.352,4.3543,4.358,4.3652,4.3713,4.3795,4.3871,4.3911,4.3967,4.4035,4.4134,4.4112,4.4153,4.4159,4.4211,4.4312,4.4181,4.4182,4.4203,4.444,4.4457,4.4477,4.4304,4.4307,4.431,4.4435,0,4.3552,4.3703,4.3721,4.3853,4.3926,4.3918,4.3989,4.4039,4.4063,4.4125,4.4149,4.4219,4.4186,4.421,4.4262,4.4289,4.436,4.428,4.4364,4.4366,4.435,4.4499,4.4518,4.4634,4.4451,4.4454,4.4456,0,4.3719,4.3784,4.3925,4.3987,4.4018,4.4082,4.4152,4.4212,4.4267,4.428,4.4326,4.4325,4.4406,4.4354,4.4464,4.441,4.4444,4.4463,4.4467,4.4475,4.4417,4.451,4.4672,4.4689,4.4482,4.448,4.4478,0,4.3808,4.3931,4.4031,4.4063,4.4137,4.4182,4.4215,4.4267,4.431,4.4369,4.4397,4.4463,4.4499,4.4549,4.4564,4.4526,4.4673,4.4623,4.4684,4.4683,4.4715,4.4713,4.4884,4.4738,4.4738,4.4738,4.4737,0,4.3946,4.4032,4.4072,4.4133,4.4228,4.4246,4.4338,4.4367,4.4413,4.4477,4.4473,4.4532,4.4549,4.461,4.4622,4.471,4.4726,4.4737,4.4739,4.4738,4.4736,4.476,4.4752,4.4742,4.4741,4.474,4.474,0,4.4062,4.4093,4.4201,4.4263,4.428,4.4347,4.4398,4.4455,4.4478,4.4559,4.4579,4.4613,4.4685,4.4706,4.479,4.4798,4.4902,4.4896,4.4885,4.4884,4.4944,4.4938,4.5136,4.5162,4.5,4.5001,4.5003,0,4.4148,4.4215,4.4285,4.4329,4.4365,4.4436,4.4481,4.45,4.4546,4.4613,4.4661,4.4733,4.4791,4.4905,4.4935,4.4999,4.4995,4.506,4.5004,4.5,4.4995,4.4991,4.4997,4.507,4.5072,4.5073,4.5074,0,4.4297,4.4309,4.4377,4.4449,4.4504,4.4561,4.4615,4.4651,4.4677,4.4728,4.4804,4.4849,4.4937,4.5007,4.5072,4.51,4.5091,4.5092,4.5109,4.5108,4.5098,4.5103,4.4912,4.5087,4.5086,4.5085,4.5084,4.5084,4.44,4.4458,4.4517,4.4592,4.4636,4.4687,4.4744,4.4774,4.4839,4.4915,4.492,4.5001,4.5051,4.5138,4.517,4.5231,4.5211,4.5237,4.5243,4.5249,4.5254,4.5089,4.5243,4.5242,4.5242,4.5242,4.5241,0,4.4548,4.4586,4.4654,4.4733,4.4791,4.478,4.484,4.4887,4.496,4.501,4.5068,4.5153,4.522,4.5256,4.5323,4.5364,4.5361,4.5381,4.5377,4.5384,4.5268,4.5246,4.5382,4.5382,4.5382,4.5382,4.5382,4.5382,4.4632,4.473,4.4748,4.4866,4.4902,4.4985,4.5019,4.5065,4.5105,4.5201,4.5259,4.5283,4.5326,4.5395,4.5456,4.5464,4.5488,4.551,4.5516,4.5406,4.5392,4.5378,4.5358,4.5515,4.5515,4.5627,4.5628,4.5629]}]]